Regional Weather Roundup
Issued by NWS

Home | Current Version | Previous Version | Text Only | Print | Product List | Glossary On
Versions: 1 2 3 4 5 6 7 8 9 10 11 12 13 14 15 16 17 18 19 20 21 22 23 24 25 26 27 28 29 30 31 32 33 34 35 36 37 38 39 40 41 42 43 44 45 46 47 48 49 50
000
ASUS42 KKEY 172010
RWRKEY

FLORIDA REGIONAL WEATHER ROUNDUP FOR THE FLORIDA KEYS
NATIONAL WEATHER SERVICE KEY WEST FLORIDA
300 PM EST WED DEC 17 2014

...SOUTH FLORIDA AND THE KEYS...

CITY           SKY/WX    TMP DP  RH WIND       PRES   REMARKS
FORT MYERS     SUNNY     76  52  43 W8        30.11F
SW REGIONAL AP SUNNY     75  51  43 W7        30.11F
NAPLES         SUNNY     73  45  36 W8        30.11F
MIAMI          SUNNY     79  49  34 VRB5      30.10F
WEST KENDALL   SUNNY     78  51  38 N5        30.11F
HOMESTEAD      SUNNY     78  55  45 E7        30.10F
MARATHON       SUNNY     72  61  68 N6        30.12F
BOCA CHICA NAS SUNNY     76  58  53 N7        30.12F
KEY WEST INTL  SUNNY     76  58  53 NE7       30.12F

...INTERNATIONAL WEATHER...

CITY           SKY/WX    TMP DP  RH WIND       PRES   REMARKS
NASSAU BAHAMAS MOSUNNY   75  55  50 N7        30.12F
CANCUN MEXICO  MOSUNNY   79  59  50 NE5       30.10F
COZUMEL MEXICO MOSUNNY   73  61  64 NE9       30.09F

ADJACENT COASTAL WATERS...

STATION/POSITION TIME  SKY/WX   TEMP    WIND        PRES    WAVE
                                AIR SEA DIR/SP/G            HT/PER
                 (UTC)          (F)     (DEG/KT/KT) (MB)    (FT/S)
PULASKI SHOAL LI 1900            70      50/  3/  4 1020.4F
SAND KEY         1939            71      30/  8/  9 1019.9F
SOMBRERO KEY     2000            72      30/  5/  6 1020.8F
LONG KEY         1900            69 68   20/  3/  3 1021.1F
MOLASSES REEF    2000            73 78  100/  2/  2 1019.7F
FOWEY ROCKS      2000            73 76  110/  4/  4 1019.7F
Buoy 42080       NOT AVBL

$$



USA.gov is the U.S. government's official web portal to all federal, state and local government web resources and services.